Tracking 34142 objects as of 17-May-2026
HD Live streaming from Space Station
objects crossing your sky now

COSMOS 1275 DEB

Track COSMOS 1275 DEB now!
10-day predictions


NORAD ID: 17619
Int'l Code: 1981-053KR
Perigee: 763.8 km
Apogee: 784.2 km
Inclination: 82.9 °
Period: 100.2 minutes
Semi major axis: 7144 km
RCS: 0.0072 m2 (small)
Launch date: June 4, 1981
Source: Commonwealth of Independent States (former USSR) (CIS)
Launch site: PLESETSK MISSILE AND SPACE COMPLEX (PKMTR)

Note: This is SATELLITE DEBRIS
Your satellite tracking list
Your tracking list is empty




NASA's NSSDC Master Catalog

Two Line Element Set (TLE):
1 17619U 81053KN  26137.47615875  .00002352  00000-0  77949-3 0  9994
2 17619  82.9421  43.7408 0014281 216.2223 197.9037 14.37478436110759
Source of the keplerian elements: AFSPC